| time (UTC) | temp C | wind direction | speed KPH | gust KPH | rain 1hr cm | rain 24hr cm | rain mn cm | humidity % | barometer mb |
| 20260502163608 | 9 | 301 | 9.7 | 11.3 | 0.00 | 0.00 | 0.00 | 53 | 1017.2 |
| 20260502163100 | 8 | 346 | 1.6 | 16.1 | 0.00 | 0.00 | 0.00 | 51 | 1017.1 |
| 20260502162556 | 7 | 325 | 8.0 | 11.3 | 0.00 | 0.00 | 0.00 | 56 | 1017.3 |
| 20260502162054 | 7 | 338 | 8.0 | 12.9 | 0.00 | 0.00 | 0.00 | 58 | 1017.2 |
| 20260502161550 | 7 | 282 | 9.7 | 14.5 | 0.00 | 0.00 | 0.00 | 56 | 1017.4 |
| 20260502161048 | 8 | 10 | 6.4 | 16.1 | 0.00 | 0.00 | 0.00 | 54 | 1017.4 |
| 20260502160546 | 8 | 295 | 4.8 | 16.1 | 0.00 | 0.00 | 0.00 | 57 | 1017.4 |
| 20260502151958 | 7 | 318 | 3.2 | 6.4 | 0.00 | 0.00 | 0.00 | 70 | 1017.6 |
| 20260502151455 | 7 | 306 | 6.4 | 9.7 | 0.00 | 0.00 | 0.00 | 66 | 1017.6 |
| 20260502150952 | 7 | 318 | 4.8 | 11.3 | 0.00 | 0.00 | 0.00 | 65 | 1017.7 |
| 20260502150449 | 7 | 326 | 3.2 | 4.8 | 0.00 | 0.00 | 0.00 | 63 | 1017.5 |
| 20260502130334 | 5 | 206 | 6.4 | 9.7 | 0.00 | 0.00 | 0.00 | 85 | 1017.6 |
| 20260502123317 | 4 | 277 | 3.2 | 4.8 | 0.00 | 0.00 | 0.00 | 95 | 1017.7 |
| 20260502122814 | 3 | 209 | 0.0 | 3.2 | 0.00 | 0.00 | 0.00 | 96 | 1017.8 |
| 20260502122310 | 3 | 206 | 1.6 | 4.8 | 0.00 | 0.00 | 0.00 | 97 | 1017.9 |
| 20260502121809 | 3 | 275 | 1.6 | 4.8 | 0.00 | 0.00 | 0.00 | 98 | 1017.8 |
| 20260502121306 | 3 | 250 | 1.6 | 3.2 | 0.00 | 0.00 | 0.00 | 98 | 1017.7 |
| 20260502120803 | 3 | 251 | 1.6 | 3.2 | 0.00 | 0.00 | 0.00 | 98 | 1017.7 |
| 20260502120259 | 3 | 255 | 1.6 | 3.2 | 0.00 | 0.00 | 0.00 | 99 | 1017.8 |
| 20260502115757 | 3 | 266 | 0.0 | 1.6 | 0.00 | 0.00 | 0.00 | 99 | 1017.8 |
| 20260502115254 | 3 | 266 | 1.6 | 3.2 | 0.00 | 0.00 | 0.00 | 99 | 1017.9 |
| 20260502114749 | 2 | 266 | 0.0 | 0.0 | 0.00 | 0.00 | 0.00 | 99 | 1017.9 |
| 20260502114246 | 2 | 266 | 0.0 | 1.6 | 0.00 | 0.00 | 0.00 | 99 | 1018.0 |
| 20260502113743 | 2 | 266 | 0.0 | 3.2 | 0.00 | 0.00 | 0.00 | 99 | 1017.9 |
| 20260502113241 | 2 | 272 | 0.0 | 0.0 | 0.00 | 0.00 | 0.00 | 99 | 1017.9 |
| 20260502112739 | 2 | 272 | 0.0 | 0.0 | 0.00 | 0.00 | 0.00 | 99 | 1017.7 |
| 20260502112237 | 2 | 272 | 0.0 | 0.0 | 0.00 | 0.00 | 0.00 | 99 | 1017.6 |
| 20260502111733 | 2 | 272 | 0.0 | 0.0 | 0.00 | 0.00 | 0.00 | 99 | 1017.6 |
| 20260502111231 | 2 | 272 | 0.0 | 0.0 | 0.00 | 0.00 | 0.00 | 99 | 1017.9 |
| 20260502110728 | 2 | 274 | 0.0 | 0.0 | 0.00 | 0.00 | 0.00 | 99 | 1017.9 |
| 20260502110226 | 2 | 274 | 0.0 | 0.0 | 0.00 | 0.00 | 0.00 | 99 | 1017.9 |
| 20260502105724 | 2 | 274 | 0.0 | 0.0 | 0.00 | 0.00 | 0.00 | 99 | 1017.9 |
| 20260502105220 | 2 | 274 | 0.0 | 0.0 | 0.00 | 0.00 | 0.00 | 99 | 1017.8 |
| 20260502104718 | 2 | 274 | 0.0 | 0.0 | 0.00 | 0.00 | 0.00 | 99 | 1018.1 |
| 20260502104215 | 1 | 274 | 0.0 | 0.0 | 0.00 | 0.00 | 0.00 | 99 | 1017.9 |
| 20260502103713 | 1 | 274 | 0.0 | 0.0 | 0.00 | 0.00 | 0.00 | 98 | 1017.8 |
| 20260502103210 | 1 | 274 | 0.0 | 0.0 | 0.00 | 0.00 | 0.00 | 99 | 1017.8 |
| 20260502102707 | 1 | 274 | 0.0 | 0.0 | 0.00 | 0.00 | 0.00 | 98 | 1017.8 |
| 20260502102204 | 1 | 274 | 0.0 | 0.0 | 0.00 | 0.00 | 0.00 | 98 | 1017.9 |
| 20260502101702 | 1 | 274 | 0.0 | 0.0 | 0.00 | 0.00 | 0.00 | 98 | 1018.1 |
| 20260502101159 | 1 | 274 | 0.0 | 0.0 | 0.00 | 0.00 | 0.00 | 98 | 1018.0 |
| 20260502100658 | 1 | 274 | 0.0 | 0.0 | 0.00 | 0.00 | 0.00 | 98 | 1017.9 |
| 20260502100156 | 1 | 274 | 0.0 | 0.0 | 0.00 | 0.00 | 0.00 | 98 | 1017.7 |
| 20260502091130 | 2 | 272 | 0.0 | 0.0 | 0.00 | 0.00 | 0.00 | 98 | 1017.7 |
| 20260502090626 | 2 | 272 | 0.0 | 0.0 | 0.00 | 0.00 | 0.00 | 98 | 1017.8 |
| 20260502090124 | 2 | 272 | 0.0 | 0.0 | 0.00 | 0.00 | 0.00 | 98 | 1017.9 |
| 20260502071521 | 2 | 304 | 0.0 | 0.0 | 0.00 | 0.00 | 0.00 | 94 | 1017.5 |
| 20260502071020 | 2 | 304 | 0.0 | 0.0 | 0.00 | 0.00 | 0.00 | 93 | 1017.5 |
| 20260502070517 | 2 | 304 | 0.0 | 0.0 | 0.00 | 0.00 | 0.00 | 93 | 1017.6 |
| 20260502070015 | 3 | 304 | 0.0 | 0.0 | 0.00 | 0.00 | 0.00 | 92 | 1017.6 |
| 20260502065514 | 3 | 303 | 1.6 | 1.6 | 0.00 | 0.00 | 0.00 | 91 | 1017.4 |
| 20260502065011 | 3 | 303 | 0.0 | 1.6 | 0.00 | 0.00 | 0.00 | 91 | 1017.7 |
| 20260502064509 | 4 | 318 | 3.2 | 4.8 | 0.00 | 0.00 | 0.00 | 90 | 1017.6 |
| 20260502064006 | 4 | 316 | 1.6 | 3.2 | 0.00 | 0.00 | 0.00 | 90 | 1017.5 |
| 20260502063504 | 4 | 316 | 3.2 | 4.8 | 0.00 | 0.00 | 0.00 | 89 | 1017.8 |
| 20260502063001 | 4 | 308 | 3.2 | 6.4 | 0.00 | 0.00 | 0.00 | 89 | 1017.8 |
| 20260502062458 | 4 | 298 | 3.2 | 4.8 | 0.00 | 0.00 | 0.00 | 89 | 1017.6 |
| 20260502061957 | 4 | 299 | 4.8 | 6.4 | 0.00 | 0.00 | 0.00 | 89 | 1017.8 |
| 20260502061454 | 4 | 320 | 3.2 | 6.4 | 0.00 | 0.00 | 0.00 | 89 | 1017.7 |
| 20260502060949 | 4 | 314 | 4.8 | 6.4 | 0.00 | 0.00 | 0.00 | 89 | 1017.9 |
| 20260502060445 | 4 | 320 | 3.2 | 6.4 | 0.00 | 0.00 | 0.00 | 89 | 1018.0 |
| 20260502055942 | 4 | 302 | 3.2 | 3.2 | 0.00 | 0.00 | 0.00 | 88 | 1017.8 |
| 20260502055440 | 4 | 309 | 1.6 | 6.4 | 0.00 | 0.00 | 0.00 | 88 | 1018.0 |
| 20260502054934 | 4 | 300 | 0.0 | 4.8 | 0.00 | 0.00 | 0.00 | 88 | 1017.7 |
| 20260502054432 | 4 | 290 | 3.2 | 4.8 | 0.00 | 0.00 | 0.00 | 88 | 1017.8 |
| 20260502053929 | 4 | 303 | 1.6 | 3.2 | 0.00 | 0.00 | 0.00 | 88 | 1017.7 |
| 20260502053426 | 4 | 308 | 3.2 | 4.8 | 0.00 | 0.00 | 0.00 | 87 | 1017.9 |
| 20260502052924 | 5 | 319 | 3.2 | 6.4 | 0.00 | 0.00 | 0.00 | 87 | 1018.0 |
| 20260502052422 | 5 | 320 | 3.2 | 4.8 | 0.00 | 0.00 | 0.00 | 87 | 1018.1 |
| 20260502051919 | 5 | 333 | 3.2 | 4.8 | 0.00 | 0.00 | 0.00 | 86 | 1018.2 |
| 20260502051418 | 5 | 316 | 3.2 | 3.2 | 0.00 | 0.00 | 0.00 | 87 | 1018.2 |
| 20260502050914 | 4 | 274 | 3.2 | 3.2 | 0.00 | 0.00 | 0.00 | 88 | 1018.1 |
| 20260502050410 | 4 | 274 | 0.0 | 3.2 | 0.00 | 0.00 | 0.00 | 87 | 1018.0 |
| 20260502045908 | 4 | 306 | 3.2 | 3.2 | 0.00 | 0.00 | 0.00 | 87 | 1018.0 |
| 20260502045405 | 5 | 298 | 1.6 | 3.2 | 0.00 | 0.00 | 0.00 | 86 | 1018.0 |
| 20260502044901 | 5 | 323 | 0.0 | 1.6 | 0.00 | 0.00 | 0.00 | 86 | 1018.1 |
| 20260502044357 | 5 | 311 | 3.2 | 3.2 | 0.00 | 0.00 | 0.00 | 86 | 1017.9 |
| 20260502043854 | 5 | 325 | 3.2 | 9.7 | 0.00 | 0.00 | 0.00 | 85 | 1018.1 |
| 20260502043352 | 5 | 315 | 3.2 | 3.2 | 0.00 | 0.00 | 0.00 | 85 | 1017.7 |
| 20260502042851 | 5 | 322 | 1.6 | 3.2 | 0.00 | 0.00 | 0.00 | 84 | 1017.8 |
| 20260502042349 | 5 | 325 | 4.8 | 4.8 | 0.00 | 0.00 | 0.00 | 83 | 1017.9 |
| 20260502041846 | 5 | 280 | 4.8 | 9.7 | 0.00 | 0.00 | 0.00 | 83 | 1017.9 |
| 20260502041343 | 5 | 337 | 4.8 | 9.7 | 0.00 | 0.00 | 0.00 | 83 | 1017.6 |
| 20260502040841 | 5 | 329 | 3.2 | 9.7 | 0.00 | 0.00 | 0.00 | 83 | 1017.8 |
| 20260502040337 | 5 | 256 | 1.6 | 6.4 | 0.00 | 0.00 | 0.00 | 83 | 1017.7 |
| 20260502035833 | 5 | 298 | 3.2 | 3.2 | 0.00 | 0.08 | 0.08 | 83 | 1018.1 |
| 20260502035330 | 5 | 322 | 3.2 | 4.8 | 0.00 | 0.08 | 0.08 | 84 | 1017.8 |
| 20260502034828 | 5 | 341 | 1.6 | 4.8 | 0.00 | 0.08 | 0.08 | 84 | 1017.4 |
| 20260502034326 | 6 | 333 | 1.6 | 6.4 | 0.00 | 0.08 | 0.08 | 84 | 1017.5 |
| 20260502033824 | 6 | 337 | 3.2 | 6.4 | 0.00 | 0.08 | 0.08 | 83 | 1017.7 |
| 20260502033321 | 6 | 7 | 9.7 | 11.3 | 0.00 | 0.08 | 0.08 | 82 | 1017.8 |
| 20260502032818 | 6 | 306 | 4.8 | 17.7 | 0.00 | 0.08 | 0.08 | 83 | 1018.0 |
| 20260502032314 | 6 | 325 | 6.4 | 12.9 | 0.00 | 0.08 | 0.08 | 84 | 1017.8 |
| 20260502031812 | 6 | 6 | 4.8 | 6.4 | 0.00 | 0.08 | 0.08 | 84 | 1017.7 |
| 20260502031310 | 6 | 331 | 4.8 | 4.8 | 0.00 | 0.08 | 0.08 | 86 | 1017.6 |
| 20260502030808 | 6 | 348 | 1.6 | 6.4 | 0.00 | 0.08 | 0.08 | 87 | 1017.6 |
| 20260502030306 | 6 | 324 | 8.0 | 11.3 | 0.00 | 0.08 | 0.08 | 87 | 1017.4 |
| 20260502025803 | 6 | 324 | 11.3 | 14.5 | 0.00 | 0.08 | 0.08 | 88 | 1017.5 |
| 20260502025301 | 7 | 340 | 8.0 | 11.3 | 0.00 | 0.08 | 0.08 | 88 | 1017.4 |
| 20260502024758 | 7 | 336 | 3.2 | 6.4 | 0.00 | 0.08 | 0.08 | 89 | 1017.4 |
| 20260502024256 | 7 | 320 | 6.4 | 9.7 | 0.00 | 0.08 | 0.08 | 89 | 1017.4 |
| 20260502023754 | 7 | 331 | 4.8 | 6.4 | 0.00 | 0.08 | 0.08 | 88 | 1017.4 |
| 20260502023251 | 7 | 295 | 6.4 | 11.3 | 0.00 | 0.08 | 0.08 | 88 | 1017.1 |
| 20260502022749 | 7 | 281 | 1.6 | 4.8 | 0.00 | 0.08 | 0.08 | 89 | 1017.2 |
| 20260502022244 | 7 | 312 | 3.2 | 14.5 | 0.00 | 0.08 | 0.08 | 89 | 1017.0 |
| 20260502021742 | 7 | 299 | 1.6 | 3.2 | 0.00 | 0.08 | 0.08 | 90 | 1017.3 |
| 20260502021239 | 7 | 298 | 6.4 | 9.7 | 0.00 | 0.08 | 0.08 | 89 | 1017.2 |
| 20260502020736 | 7 | 293 | 6.4 | 6.4 | 0.00 | 0.08 | 0.08 | 89 | 1017.2 |
| 20260502020233 | 7 | 197 | 6.4 | 12.9 | 0.00 | 0.08 | 0.08 | 88 | 1017.2 |
| 20260502015731 | 7 | 229 | 6.4 | 9.7 | 0.00 | 0.08 | 0.08 | 89 | 1017.0 |
| 20260502015227 | 7 | 297 | 1.6 | 3.2 | 0.00 | 0.08 | 0.08 | 90 | 1016.9 |
| 20260502014725 | 7 | 257 | 1.6 | 3.2 | 0.00 | 0.08 | 0.08 | 91 | 1016.8 |
| 20260502014222 | 7 | 240 | 3.2 | 4.8 | 0.00 | 0.08 | 0.08 | 90 | 1016.5 |
| 20260502013718 | 7 | 234 | 3.2 | 6.4 | 0.00 | 0.08 | 0.08 | 89 | 1016.5 |
| 20260502013213 | 7 | 253 | 3.2 | 4.8 | 0.00 | 0.08 | 0.08 | 89 | 1016.4 |
| 20260502012711 | 7 | 300 | 1.6 | 6.4 | 0.00 | 0.08 | 0.08 | 90 | 1016.5 |
| 20260502012209 | 7 | 240 | 0.0 | 3.2 | 0.00 | 0.08 | 0.08 | 90 | 1016.3 |
| 20260502011705 | 7 | 267 | 1.6 | 6.4 | 0.00 | 0.08 | 0.08 | 89 | 1016.4 |
| 20260502011201 | 7 | 279 | 4.8 | 9.7 | 0.18 | 0.08 | 0.08 | 89 | 1016.8 |
| 20260502010659 | 7 | 250 | 1.6 | 3.2 | 0.18 | 0.08 | 0.08 | 90 | 1016.4 |
| 20260502010154 | 7 | 269 | 1.6 | 3.2 | 0.00 | 0.05 | 0.05 | 90 | 1016.3 |
| 20260502005652 | 7 | 311 | 0.0 | 4.8 | 0.00 | 0.05 | 0.05 | 89 | 1016.3 |
| 20260502005150 | 7 | 278 | 0.0 | 1.6 | 0.00 | 0.05 | 0.05 | 89 | 1016.0 |
| 20260502004646 | 7 | 258 | 3.2 | 4.8 | 0.00 | 0.05 | 0.05 | 88 | 1015.9 |
| 20260502004142 | 7 | 311 | 3.2 | 4.8 | 0.13 | 0.05 | 0.05 | 88 | 1015.8 |
| 20260502003641 | 7 | 209 | 3.2 | 4.8 | 0.13 | 0.05 | 0.05 | 89 | 1015.8 |
| 20260502003138 | 7 | 274 | 0.0 | 1.6 | 0.00 | 0.03 | 0.03 | 88 | 1015.7 |
| 20260502002633 | 7 | 281 | 0.0 | 1.6 | 0.00 | 0.03 | 0.03 | 86 | 1015.8 |
| 20260502002131 | 7 | 310 | 3.2 | 4.8 | 0.00 | 0.03 | 0.03 | 84 | 1015.5 |
| 20260502001629 | 7 | 282 | 3.2 | 3.2 | 0.00 | 0.03 | 0.03 | 84 | 1015.6 |
| 20260502001126 | 7 | 268 | 3.2 | 6.4 | 0.00 | 0.03 | 0.03 | 84 | 1015.5 |
| 20260502000624 | 7 | 284 | 3.2 | 6.4 | 0.00 | 0.03 | 0.03 | 85 | 1015.3 |
| 20260502000121 | 8 | 259 | 0.0 | 3.2 | 0.00 | 0.03 | 0.03 | 85 | 1015.1 |
| 20260501235617 | 8 | 304 | 3.2 | 3.2 | 0.00 | 0.03 | 0.03 | 84 | 1015.3 |
| 20260501235113 | 8 | 304 | 4.8 | 4.8 | 0.00 | 0.03 | 0.03 | 82 | 1015.2 |
| 20260501234608 | 8 | 276 | 3.2 | 11.3 | 0.00 | 0.03 | 0.03 | 81 | 1015.0 |
| 20260501234106 | 8 | 262 | 0.0 | 4.8 | 0.00 | 0.03 | 0.03 | 83 | 1015.0 |
| 20260501233604 | 8 | 275 | 4.8 | 6.4 | 0.18 | 0.03 | 0.03 | 82 | 1014.9 |
| 20260501233101 | 8 | 338 | 3.2 | 9.7 | 0.00 | 0.00 | 0.00 | 80 | 1014.9 |
| 20260501232557 | 9 | 317 | 4.8 | 11.3 | 0.00 | 0.00 | 0.00 | 78 | 1015.0 |
| 20260501232054 | 9 | 4 | 9.7 | 14.5 | 0.00 | 0.00 | 0.00 | 75 | 1014.9 |
| 20260501231552 | 9 | 297 | 6.4 | 14.5 | 0.00 | 0.00 | 0.00 | 75 | 1015.1 |
| 20260501231050 | 9 | 309 | 6.4 | 12.9 | 0.00 | 0.00 | 0.00 | 75 | 1014.8 |
| 20260501230549 | 9 | 304 | 3.2 | 6.4 | 0.00 | 0.00 | 0.00 | 76 | 1014.7 |
| 20260501230046 | 10 | 319 | 4.8 | 9.7 | 0.00 | 0.00 | 0.00 | 75 | 1014.8 |
| 20260501225543 | 10 | 241 | 9.7 | 12.9 | 0.00 | 0.00 | 0.00 | 75 | 1014.8 |
| 20260501225039 | 10 | 334 | 16.1 | 17.7 | 0.00 | 0.00 | 0.00 | 75 | 1014.9 |
| 20260501224537 | 10 | 31 | 6.4 | 14.5 | 0.00 | 0.00 | 0.00 | 76 | 1014.8 |
| 20260501224034 | 10 | 329 | 6.4 | 14.5 | 0.00 | 0.00 | 0.00 | 75 | 1014.7 |
| 20260501223531 | 10 | 337 | 8.0 | 20.9 | 0.00 | 0.00 | 0.00 | 74 | 1014.9 |
| 20260501223027 | 10 | 310 | 6.4 | 17.7 | 0.00 | 0.00 | 0.00 | 73 | 1014.5 |
| 20260501222523 | 10 | 316 | 11.3 | 20.9 | 0.00 | 0.00 | 0.00 | 73 | 1014.5 |
| 20260501222020 | 10 | 270 | 12.9 | 20.9 | 0.00 | 0.00 | 0.00 | 70 | 1014.4 |
| 20260501221516 | 10 | 339 | 11.3 | 17.7 | 0.00 | 0.00 | 0.00 | 71 | 1014.4 |
| 20260501221015 | 10 | 318 | 19.3 | 24.1 | 0.00 | 0.00 | 0.00 | 69 | 1014.3 |
| 20260501220512 | 11 | 309 | 19.3 | 24.1 | 0.00 | 0.00 | 0.00 | 68 | 1014.3 |
| 20260501220009 | 11 | 332 | 9.7 | 22.5 | 0.00 | 0.00 | 0.00 | 66 | 1014.4 |
| 20260501215505 | 11 | 302 | 14.5 | 20.9 | 0.00 | 0.00 | 0.00 | 64 | 1014.2 |
| 20260501215000 | 11 | 300 | 16.1 | 20.9 | 0.00 | 0.00 | 0.00 | 62 | 1014.2 |
| 20260501214455 | 12 | 311 | 16.1 | 24.1 | 0.00 | 0.00 | 0.00 | 61 | 1013.9 |
| 20260501213951 | 12 | 346 | 9.7 | 22.5 | 0.00 | 0.00 | 0.00 | 59 | 1013.8 |
| 20260501213449 | 12 | 330 | 14.5 | 24.1 | 0.00 | 0.00 | 0.00 | 56 | 1013.8 |
| 20260501212943 | 13 | 305 | 19.3 | 22.5 | 0.00 | 0.00 | 0.00 | 50 | 1013.4 |
| 20260501212441 | 13 | 334 | 17.7 | 24.1 | 0.00 | 0.00 | 0.00 | 48 | 1013.3 |
| 20260501211938 | 13 | 344 | 8.0 | 24.1 | 0.00 | 0.00 | 0.00 | 49 | 1013.2 |
| 20260501211435 | 13 | 342 | 17.7 | 29.0 | 0.00 | 0.00 | 0.00 | 47 | 1013.2 |
| 20260501210933 | 14 | 347 | 12.9 | 20.9 | 0.00 | 0.00 | 0.00 | 42 | 1013.2 |
| 20260501210429 | 14 | 329 | 9.7 | 22.5 | 0.00 | 0.00 | 0.00 | 41 | 1012.9 |
| 20260501205926 | 15 | 269 | 11.3 | 20.9 | 0.00 | 0.00 | 0.00 | 40 | 1012.8 |
| 20260501205423 | 15 | 310 | 3.2 | 16.1 | 0.00 | 0.00 | 0.00 | 44 | 1012.6 |
| 20260501204921 | 15 | 321 | 16.1 | 20.9 | 0.00 | 0.00 | 0.00 | 40 | 1012.6 |
| 20260501204416 | 15 | 283 | 3.2 | 14.5 | 0.00 | 0.00 | 0.00 | 42 | 1012.4 |
| 20260501203913 | 16 | 317 | 9.7 | 25.7 | 0.00 | 0.00 | 0.00 | 37 | 1012.6 |
| 20260501203410 | 16 | 278 | 3.2 | 11.3 | 0.00 | 0.00 | 0.00 | 40 | 1012.4 |
| 20260501202907 | 16 | 313 | 12.9 | 22.5 | 0.00 | 0.00 | 0.00 | 36 | 1012.6 |
| 20260501202404 | 16 | 299 | 6.4 | 16.1 | 0.00 | 0.00 | 0.00 | 33 | 1012.2 |
| 20260501201901 | 16 | 312 | 8.0 | 16.1 | 0.00 | 0.00 | 0.00 | 34 | 1012.6 |
| 20260501201358 | 16 | 328 | 11.3 | 25.7 | 0.00 | 0.00 | 0.00 | 37 | 1012.6 |
| 20260501200854 | 16 | 236 | 3.2 | 6.4 | 0.00 | 0.00 | 0.00 | 37 | 1012.6 |
| 20260501200351 | 16 | 306 | 6.4 | 14.5 | 0.00 | 0.00 | 0.00 | 40 | 1012.6 |
| 20260501195849 | 17 | 335 | 11.3 | 16.1 | 0.00 | 0.00 | 0.00 | 35 | 1012.7 |
| 20260501195344 | 15 | 321 | 6.4 | 17.7 | 0.00 | 0.00 | 0.00 | 36 | 1012.7 |
| 20260501194840 | 15 | 246 | 4.8 | 9.7 | 0.00 | 0.00 | 0.00 | 38 | 1012.8 |
| 20260501194336 | 15 | 306 | 9.7 | 14.5 | 0.00 | 0.00 | 0.00 | 36 | 1013.0 |
| 20260501193833 | 16 | 302 | 11.3 | 20.9 | 0.00 | 0.00 | 0.00 | 33 | 1012.9 |
| 20260501193332 | 16 | 263 | 6.4 | 20.9 | 0.00 | 0.00 | 0.00 | 37 | 1013.1 |
| 20260501192829 | 15 | 301 | 8.0 | 14.5 | 0.00 | 0.00 | 0.00 | 33 | 1013.0 |
| 20260501192326 | 15 | 306 | 16.1 | 22.5 | 0.00 | 0.00 | 0.00 | 33 | 1013.0 |
| 20260501191822 | 15 | 287 | 11.3 | 27.4 | 0.00 | 0.00 | 0.00 | 33 | 1013.2 |
| 20260501191320 | 16 | 318 | 6.4 | 20.9 | 0.00 | 0.00 | 0.00 | 36 | 1013.2 |
| 20260501190816 | 15 | 254 | 11.3 | 22.5 | 0.00 | 0.00 | 0.00 | 33 | 1013.2 |
| 20260501190312 | 16 | 311 | 6.4 | 12.9 | 0.00 | 0.00 | 0.00 | 39 | 1013.1 |
| 20260501185808 | 16 | 339 | 9.7 | 20.9 | 0.00 | 0.00 | 0.00 | 34 | 1013.1 |
| 20260501185306 | 16 | 299 | 11.3 | 14.5 | 0.00 | 0.00 | 0.00 | 37 | 1013.1 |
| 20260501184800 | 15 | 329 | 9.7 | 14.5 | 0.00 | 0.00 | 0.00 | 39 | 1013.3 |
| 20260501184255 | 15 | 242 | 6.4 | 9.7 | 0.00 | 0.00 | 0.00 | 38 | 1013.0 |
| 20260501183751 | 15 | 305 | 9.7 | 22.5 | 0.00 | 0.00 | 0.00 | 34 | 1013.2 |
| 20260501183249 | 15 | 233 | 6.4 | 25.7 | 0.00 | 0.00 | 0.00 | 38 | 1013.3 |
| 20260501182745 | 15 | 319 | 14.5 | 22.5 | 0.00 | 0.00 | 0.00 | 32 | 1013.4 |
| 20260501182243 | 15 | 304 | 12.9 | 16.1 | 0.00 | 0.00 | 0.00 | 37 | 1013.3 |
| 20260501181739 | 16 | 270 | 4.8 | 22.5 | 0.00 | 0.00 | 0.00 | 41 | 1013.2 |
| 20260501181236 | 16 | 267 | 9.7 | 14.5 | 0.00 | 0.00 | 0.00 | 41 | 1013.4 |
| 20260501180734 | 16 | 278 | 1.6 | 6.4 | 0.00 | 0.00 | 0.00 | 49 | 1013.2 |
| 20260501180229 | 15 | 276 | 3.2 | 11.3 | 0.00 | 0.00 | 0.00 | 48 | 1013.1 |
| 20260501175727 | 15 | 277 | 4.8 | 14.5 | 0.00 | 0.00 | 0.00 | 55 | 1013.5 |
| 20260501175224 | 15 | 225 | 1.6 | 4.8 | 0.00 | 0.00 | 0.00 | 46 | 1013.6 |
| 20260501174720 | 15 | 236 | 3.2 | 9.7 | 0.00 | 0.00 | 0.00 | 54 | 1013.5 |
| 20260501174218 | 15 | 343 | 8.0 | 11.3 | 0.00 | 0.00 | 0.00 | 50 | 1013.5 |
| 20260501173715 | 15 | 282 | 6.4 | 9.7 | 0.00 | 0.00 | 0.00 | 48 | 1013.5 |
| 20260501173212 | 15 | 212 | 8.0 | 11.3 | 0.00 | 0.00 | 0.00 | 49 | 1013.7 |
| 20260501172708 | 13 | 249 | 4.8 | 11.3 | 0.00 | 0.00 | 0.00 | 55 | 1013.7 |
| 20260501172203 | 13 | 278 | 6.4 | 9.7 | 0.00 | 0.00 | 0.00 | 56 | 1013.7 |
| 20260501171659 | 13 | 252 | 3.2 | 6.4 | 0.00 | 0.00 | 0.00 | 50 | 1013.7 |
| 20260501171157 | 13 | 297 | 4.8 | 6.4 | 0.00 | 0.00 | 0.00 | 56 | 1014.0 |
| 20260501170653 | 14 | 275 | 0.0 | 9.7 | 0.00 | 0.00 | 0.00 | 50 | 1013.9 |
| 20260501170150 | 13 | 257 | 3.2 | 9.7 | 0.00 | 0.00 | 0.00 | 52 | 1013.9 |
| 20260501165648 | 14 | 261 | 6.4 | 9.7 | 0.00 | 0.00 | 0.00 | 51 | 1013.9 |
| 20260501165145 | 14 | 205 | 6.4 | 12.9 | 0.00 | 0.00 | 0.00 | 52 | 1014.1 |
| 20260501164644 | 14 | 238 | 3.2 | 6.4 | 0.00 | 0.00 | 0.00 | 52 | 1014.2 |
| 20260501164140 | 13 | 207 | 4.8 | 9.7 | 0.00 | 0.00 | 0.00 | 57 | 1014.3 |